[[{"header":{"parameterUnit":"m.s-1","parameterCategory":1,"la1":30.2991,"la2":30.254,"lo1":-89.0895,"lo2":-89.0444,"dy":0.0017,"dx":0.0017,"nx":28,"ny":28,"refTime":"2025-07-09T21:00:00:Z","depth":0,"parameterNumber":2,"parameterNumberName":"U-component_of_WINDS"},"data":[0,0,0,0,0,0,0,0,0,0,0,0,0,0,0,0,0,0,0,0,0,0,0,0,0,0,0,0,0,0,0,0,0,0,0,0,0,0,0,0,0,0,0,0,0,0,0,0,0,0,0,0,0,0,0,0,0,0,4.0526,4.0527,0,4.0596,4.0597,4.0598,4.0543,4.0541,4.0538,4.0536,4.0611,4.0615,4.0619,0,0,0,0,0,0,0,0,0,0,0,0,0,4.0348,4.0351,4.0526,4.0527,4.0528,4.0596,4.0597,4.0598,4.0543,4.0541,4.0538,4.0535,4.061,4.0614,4.062,0,0,0,0,0,0,0,0,0,0,0,0,0,4.0422,4.0352,4.0526,4.0509,4.0508,4.0596,4.0597,4.0598,4.0544,4.0541,4.0537,4.0534,4.0608,4.0614,4.062,4.073,0,0,4.0639,4.0642,0,0,0,0,0,0,0,0,4.0418,4.0429,4.051,4.051,4.0509,4.0557,4.0561,4.0642,4.0545,4.053,4.0536,4.0532,4.0596,4.0603,4.0624,4.0733,4.0736,4.064,4.0644,4.0646,4.0648,0,0,0,0,0,0,0,4.0413,4.0426,4.0554,4.0511,4.0511,4.0498,4.0505,4.0577,4.0582,4.0531,4.0528,4.0536,4.0595,4.0618,4.0625,4.0737,4.064,4.0645,4.0649,4.0652,4.0939,4.0943,0,0,0,0,0,0,4.0409,4.0422,4.0551,4.0556,4.0454,4.0505,4.0512,4.0545,4.0581,4.0583,4.0539,4.0534,4.0609,4.0618,4.0628,4.0756,4.0646,4.0652,4.0656,4.0935,4.094,4.0944,0,0,0,0,0,0,4.0405,4.0421,4.0549,4.0488,4.0503,4.0511,4.0549,4.0549,4.0571,4.0587,4.0588,4.0562,4.0607,4.0619,4.0704,4.0758,4.0655,4.0661,4.0931,4.0937,4.0942,4.1016,0,0,0,0,0,0,4.0401,4.042,4.0461,4.0489,4.0506,4.0623,4.0553,4.0553,4.0582,4.0575,4.0608,4.0611,4.0605,4.0695,4.0711,4.0765,4.0666,4.0926,4.0933,4.094,4.1008,4.1023,4.1036,0,0,0,0,0,4.0394,4.048,4.0463,4.0479,4.0557,4.0626,4.0636,4.0627,4.0587,4.0628,4.0638,4.061,4.0751,4.0704,4.0721,4.0778,4.0922,4.0931,4.0939,4.1002,4.102,4.1036,0,0,0,0,0,0,4.0458,4.0483,4.0465,4.0562,4.0592,4.0617,4.0668,4.0647,4.069,4.0682,4.067,4.0678,4.0767,4.0782,4.073,4.0886,4.083,4.0843,4.0872,4.0889,4.0903,4.0896,4.0671,0,0,0,0,0,4.0484,4.0537,4.0556,4.0639,4.0656,4.066,4.0689,4.068,4.0711,4.0724,4.074,4.0773,4.0824,4.0858,4.0907,4.1012,4.1017,4.106,4.1074,4.1085,4.1095,4.115,4.1168,4.0973,4.0972,4.0972,0,0,4.0536,4.0557,4.0591,4.0653,4.0675,4.073,4.0671,4.0732,4.0773,4.0734,4.0813,4.0828,4.0863,4.0958,4.1001,4.0973,4.1151,4.1096,4.1105,4.1108,4.1161,4.1179,4.1196,4.0978,4.0977,4.0976,0,0,4.066,4.0681,4.0752,4.0776,4.0811,4.0813,4.0831,4.0859,4.0866,4.0947,4.0918,4.0968,4.1057,4.1083,4.1108,4.1243,4.1218,4.126,4.1331,4.1385,4.14,4.1414,4.146,4.1477,4.1271,4.1271,4.1271,0,4.0721,4.0802,4.0792,4.0855,4.0883,4.085,4.0922,4.0946,4.0995,4.1016,4.0984,4.1095,4.1117,4.1217,4.125,4.1272,4.1291,4.1254,4.1399,4.1412,4.1425,4.1468,4.1486,4.1275,4.1275,4.1274,4.1274,0,4.0874,4.0932,4.0985,4.1032,4.1067,4.1134,4.1135,4.1172,4.116,4.1166,4.1249,4.1274,4.1327,4.1351,4.1341,4.1449,4.1431,4.14,4.1343,4.1448,4.1489,4.1506,4.1282,4.128,4.1279,4.1278,0,0,4.1036,4.1078,4.1097,4.1118,4.1155,4.1199,4.1266,4.1316,4.1347,4.1384,4.1438,4.1516,4.1487,4.1515,4.1509,4.1557,4.166,4.1519,4.152,4.1542,4.1779,4.18,4.1819,4.1645,4.1648,4.1651,4.1775,0,4.1159,4.1273,4.1267,4.1374,4.1426,4.1397,4.1455,4.1485,4.1493,4.1539,4.1549,4.1603,4.1562,4.1579,4.1626,4.1637,4.1706,4.1629,4.1695,4.1697,4.1683,4.1841,4.1863,4.1979,4.1791,4.1794,4.1796,0,4.1316,4.1356,4.1469,4.1497,4.1519,4.1571,4.1617,4.1662,4.1695,4.1698,4.1731,4.1716,4.1784,4.1729,4.1822,4.1769,4.1796,4.1807,4.1811,4.1814,4.175,4.1845,4.2016,4.2032,4.1822,4.182,4.1818,0,4.142,4.1503,4.158,4.1599,4.1635,4.1672,4.1689,4.1719,4.175,4.1791,4.1811,4.186,4.1886,4.1925,4.1924,4.1884,4.2019,4.1963,4.2022,4.2022,4.2048,4.2046,4.2222,4.2072,4.2072,4.2071,4.2071,0,4.1555,4.1624,4.1626,4.1673,4.175,4.1744,4.1821,4.1834,4.1861,4.1911,4.1891,4.1938,4.1936,4.1985,4.1986,4.2062,4.2075,4.2078,4.2077,4.2078,4.2077,4.2093,4.2084,4.2076,4.2075,4.2074,4.2073,0,4.1681,4.1686,4.1768,4.1796,4.1805,4.186,4.1884,4.1929,4.1937,4.2,4.2015,4.2027,4.2083,4.2087,4.2153,4.2153,4.2245,4.2237,4.2233,4.223,4.2287,4.2281,4.2478,4.2502,4.2339,4.234,4.2342,0,4.1765,4.1817,4.1851,4.1882,4.1901,4.1953,4.1984,4.1981,4.2015,4.2057,4.2097,4.2151,4.2194,4.2285,4.23,4.235,4.2341,4.2407,4.2348,4.2347,4.2338,4.2334,4.2338,4.2417,4.2419,4.242,4.2421,0,4.1913,4.1913,4.1958,4.2005,4.2042,4.2079,4.2113,4.2141,4.2142,4.2181,4.2237,4.2271,4.2337,4.2391,4.244,4.2459,4.244,4.244,4.2456,4.2455,4.245,4.2451,4.226,4.2435,4.2433,4.2432,4.2432,4.2431,4.2018,4.2063,4.2093,4.2144,4.217,4.2203,4.2246,4.226,4.2307,4.2359,4.2356,4.2418,4.2452,4.2515,4.2538,4.2587,4.2565,4.2589,4.2594,4.2599,4.2603,4.2445,4.2597,4.2597,4.2596,4.2596,4.2596,0,4.2162,4.2181,4.2228,4.2276,4.2317,4.2297,4.2334,4.2369,4.2424,4.2457,4.2499,4.2564,4.2617,4.2637,4.2688,4.2724,4.2716,4.2737,4.2732,4.2737,4.2622,4.2601,4.2742,4.2742,4.2742,4.2742,4.2742,4.2742,4.2241,4.2315,4.2319,4.2406,4.2425,4.2485,4.2507,4.2538,4.2563,4.2637,4.268,4.2693,4.272,4.2773,4.2821,4.2825,4.2844,4.2868,4.2868,4.276,4.2745,4.2731,4.2711,4.2873,4.2873,4.2979,4.298,4.298]},{"header":{"parameterUnit":"m.s-1","parameterCategory":1,"la1":30.2991,"la2":30.254,"lo1":-89.0895,"lo2":-89.0444,"dy":0.0017,"dx":0.0017,"nx":28,"ny":28,"refTime":"2025-07-09T21:00:00:Z","depth":0,"parameterNumber":3,"parameterNumberName":"V-component_of_WINDS"},"data":[0,0,0,0,0,0,0,0,0,0,0,0,0,0,0,0,0,0,0,0,0,0,0,0,0,0,0,0,0,0,0,0,0,0,0,0,0,0,0,0,0,0,0,0,0,0,0,0,0,0,0,0,0,0,0,0,0,0,4.3747,4.3749,0,4.3934,4.3936,4.3938,4.3992,4.3991,4.399,4.3989,4.4173,4.4178,4.4184,0,0,0,0,0,0,0,0,0,0,0,0,0,4.3428,4.3434,4.3746,4.3749,4.3751,4.3934,4.3936,4.3939,4.3992,4.3991,4.399,4.3989,4.4171,4.4178,4.4185,0,0,0,0,0,0,0,0,0,0,0,0,0,4.3586,4.3435,4.3746,4.38,4.3807,4.3933,4.3936,4.3939,4.3993,4.3991,4.399,4.3988,4.4169,4.4177,4.4186,4.4269,0,0,4.4212,4.4216,0,0,0,0,0,0,0,0,4.3577,4.3597,4.379,4.3797,4.3805,4.3938,4.3891,4.405,4.3993,4.3922,4.3989,4.3988,4.4095,4.411,4.4148,4.4278,4.4285,4.4213,4.4218,4.4222,4.4225,0,0,0,0,0,0,0,4.3566,4.3589,4.382,4.3793,4.3802,4.3813,4.3833,4.3921,4.4014,4.3928,4.3932,4.3954,4.4099,4.414,4.4153,4.4288,4.4213,4.4221,4.4226,4.4229,4.4495,4.4496,0,0,0,0,0,0,4.3547,4.358,4.3814,4.3826,4.3685,4.382,4.3843,4.3897,4.4014,4.403,4.3955,4.3956,4.4126,4.4143,4.416,4.4265,4.4222,4.423,4.4235,4.4493,4.4495,4.4497,0,0,0,0,0,0,4.3539,4.3567,4.3807,4.3704,4.3736,4.3827,4.3887,4.3901,4.3942,4.4035,4.405,4.398,4.4125,4.4147,4.4242,4.4272,4.4234,4.4242,4.4491,4.4494,4.4496,4.4476,0,0,0,0,0,0,4.353,4.3564,4.3598,4.3705,4.3741,4.3888,4.3889,4.3906,4.3958,4.3961,4.4062,4.4077,4.4126,4.4229,4.4251,4.4283,4.4249,4.4488,4.4492,4.4495,4.4474,4.4477,4.448,0,0,0,0,0,4.3519,4.3583,4.36,4.3628,4.3786,4.389,4.3911,4.3967,4.396,4.3994,4.4054,4.4074,4.4265,4.4238,4.4263,4.4299,4.4487,4.4491,4.4495,4.4473,4.4477,4.448,0,0,0,0,0,0,4.3475,4.3598,4.3618,4.372,4.3795,4.3899,4.3944,4.397,4.4046,4.4045,4.4109,4.4131,4.4221,4.4269,4.4237,4.4385,4.4376,4.4386,4.4351,4.4355,4.4358,4.4344,4.4256,0,0,0,0,0,4.3478,4.3555,4.3657,4.3737,4.3774,4.3852,4.3899,4.3937,4.4015,4.4046,4.4113,4.4186,4.4263,4.4312,4.4387,4.4481,4.4503,4.4518,4.4521,4.4523,4.453,4.4583,4.4591,4.4511,4.4511,4.451,0,0,4.3484,4.356,4.3604,4.373,4.3792,4.3868,4.3878,4.3957,4.4013,4.4058,4.4152,4.4203,4.4289,4.4384,4.4428,4.4426,4.4557,4.4528,4.4529,4.4536,4.4588,4.4595,4.4602,4.4513,4.4513,4.4512,0,0,4.3532,4.3599,4.3673,4.3736,4.3831,4.3883,4.39,4.4002,4.4038,4.4134,4.4169,4.4235,4.4366,4.4426,4.4473,4.4545,4.4567,4.4568,4.4584,4.4634,4.4641,4.4646,4.4672,4.468,4.4575,4.4575,4.4575,0,4.3527,4.3645,4.3707,4.3785,4.3839,4.3885,4.3959,4.4016,4.413,4.4164,4.4161,4.4327,4.4388,4.4497,4.4515,4.4552,4.4573,4.4556,4.4635,4.4642,4.4648,4.4673,4.4682,4.4574,4.4574,4.4574,4.4574,0,4.3632,4.3713,4.3761,4.3873,4.3932,4.4007,4.4079,4.4131,4.4163,4.4214,4.4311,4.4386,4.4478,4.4506,4.4537,4.462,4.4616,4.4623,4.4615,4.4654,4.4678,4.4688,4.4573,4.4574,4.4574,4.4574,0,0,4.3658,4.3805,4.3821,4.3873,4.3981,4.4044,4.412,4.4213,4.4256,4.4332,4.4397,4.4507,4.4515,4.4569,4.4607,4.4652,4.4703,4.4654,4.4656,4.466,4.4798,4.4792,4.4802,4.4719,4.4721,4.4722,4.4791,0,4.3721,4.3863,4.3922,4.4036,4.411,4.4156,4.4222,4.4295,4.4345,4.4414,4.4468,4.4545,4.455,4.4583,4.4629,4.4687,4.4732,4.4683,4.4777,4.478,4.4755,4.4815,4.4808,4.487,4.4801,4.4802,4.4804,0,4.3812,4.3893,4.4015,4.4115,4.4149,4.4208,4.4297,4.4364,4.4446,4.4479,4.454,4.4576,4.4656,4.4643,4.4754,4.4719,4.4761,4.4795,4.4799,4.4809,4.4794,4.4826,4.4891,4.4899,4.4819,4.4818,4.4817,0,4.3818,4.3957,4.4048,4.4091,4.421,4.425,4.4301,4.4383,4.4435,4.4512,4.4546,4.463,4.4676,4.4739,4.4796,4.4782,4.4901,4.4893,4.4929,4.4928,4.4952,4.4949,4.5023,4.4979,4.4979,4.4979,4.4978,0,4.3882,4.3954,4.4053,4.4109,4.4191,4.4257,4.4336,4.4389,4.4461,4.4527,4.457,4.463,4.4702,4.4771,4.4815,4.4899,4.492,4.4947,4.4958,4.4944,4.494,4.4971,4.4968,4.4981,4.4981,4.498,4.498,0,4.3902,4.3971,4.4074,4.4179,4.4207,4.4263,4.4352,4.4407,4.4459,4.4542,4.4564,4.4646,4.4729,4.4793,4.49,4.493,4.5019,4.503,4.4992,4.4997,4.503,4.5026,4.5126,4.5142,4.5087,4.5088,4.5088,0,4.3938,4.3995,4.4107,4.4156,4.4207,4.4284,4.4338,4.4404,4.4458,4.4557,4.4599,4.4686,4.4759,4.4889,4.4956,4.5038,4.5052,4.5082,4.5064,4.5048,4.5052,4.5048,4.5054,4.5083,4.5084,4.5084,4.5084,0,4.3993,4.4025,4.4103,4.4193,4.4257,4.433,4.4403,4.444,4.4519,4.4577,4.4664,4.4721,4.4831,4.4916,4.5005,4.5055,4.5082,4.5089,4.5102,4.5087,4.5062,4.5076,4.4997,4.5086,4.5086,4.5086,4.5086,4.5086,4.4022,4.4076,4.4163,4.4248,4.4311,4.438,4.4437,4.4498,4.4572,4.467,4.4703,4.4793,4.4873,4.4996,4.5046,4.5116,4.5116,4.5134,4.5139,4.5142,4.5141,4.5052,4.5132,4.5132,4.5132,4.5132,4.5132,0,4.408,4.4139,4.4216,4.432,4.4386,4.4409,4.4492,4.4545,4.4625,4.4699,4.4771,4.487,4.4953,4.5027,4.5113,4.5154,4.5169,4.5174,4.5171,4.5182,4.5136,4.5116,4.5161,4.5161,4.5161,4.5161,4.5161,4.5161,4.4117,4.4209,4.4251,4.4374,4.4432,4.4522,4.4568,4.463,4.469,4.48,4.487,4.4919,4.4993,4.5085,4.5161,4.5181,4.521,4.5212,4.5235,4.5189,4.5186,4.5182,4.5164,4.5218,4.5218,4.5276,4.5276,4.5277]}]]